User: anonymous   Login
Location: Bishop�s Knoyle
(51.0728°N, 2.1714°W)
Time: 16:58:59
(UTC+00:00)
Language:

DELTA 1 DEB - Orbit

View from above orbital plane
View from above orbital plane
View from above satellite
View from above satellite

Ground track
Ground track

The orbit data is extracted from the following two-line orbital elements,

1 44568U 78026KL  21106.10879485  .00003189  00000-0  33496-3 0  9991
2 44568  98.9171 168.9075 0024490 329.0466  30.9303 14.90146349188702
Epoch (UTC): 16 April 2021 02:36:39
Eccentricity: 0.0024490
inclination: 98.9171°
perigee height: 580 km
apogee height: 614 km
right ascension of ascending node: 168.9075°
argument of perigee: 329.0466°
revolutions per day: 14.90146349
mean anomaly at epoch: 30.9303°
orbit number at epoch: 18870

The dashed part of the orbit path shows where the satellite is in the earth's shadow,  

DLR